Location: Moena
(46.3667°N, 11.6500°E)
Time: 18:36:18
(UTC+00:00)

Cosmos 2333 Rocket - Pass Details

Date: 03 March 2021
Orbit: 837 x 864 km, 70.8° (Epoch: 15 April)

Event Time Altitude Azimuth Distance (km) Brightness Sun altitude
Rises 20:31:38 0° 239° (WSW) 3,396 5.6 -35.5°
Reaches altitude 10° 20:34:23 10° 250° (WSW) 2,469 5.0 -35.8°
Maximum altitude 20:39:18 30° 310° (NW) 1,501 3.9 -36.5°
Drops below altitude 10° 20:44:17 10° 11° (N) 2,497 4.9 -37.2°
Sets 20:47:05 0° 22° (NNE) 3,441 5.5 -37.6°
